Date String (YYYY-MM-DD hh:mm:ss) UTC,Instrument flags,absolute air pressure of the measurement (hPa),sample flow rate (lpm),inlet stack bypass flow (lpm),air temperature of the measurement (°C),ambient temperature measured by the external sensor (°C),aerosol sample conditioner tube jacket temperature (°C),OPC LED temperature (°C),internal box temperature (°C),relative humidity of the measurement (%),span deviation,mass concentration of particles derived from Lorenz-Mie calculation of OPC scattering (μg/m³),mass concentration of particles derived from Lorenz-Mie calculation of OPC scattering (μg/m³),mass concentration of particles derived from Lorenz-Mie calculation of OPC scattering (μg/m³)
DateTimeUTC,F1_M11,P_M11,Q1_M11,Q2_M11,T1_M11,T2_M11,T3_M11,T4_M11,T5_M11,U1_M11,ZSPAN_M11,X0_M11,X2_M11,X1_M11
2024-05-24 02:00:00,SystemResetWarning,0820.7,5.00,000.00,030.2,029.2,000.0,038.6,031.9,012.4,0000.0,0003.79,0000.59,0000.25
2024-05-24 02:01:00,SystemResetWarning,0820.7,5.00,000.00,030.2,029.2,000.0,038.6,031.9,012.3,0000.0,0003.47,0000.52,0000.26
2024-05-24 02:02:00,SystemResetWarning,0820.6,4.99,000.00,030.2,029.2,000.0,038.6,031.9,012.3,0000.0,0003.12,0000.53,0000.27
2024-05-24 02:03:00,SystemResetWarning,0820.6,5.00,000.00,030.2,029.1,000.0,038.6,031.8,012.2,0000.0,0002.18,0000.52,0000.27
2024-05-24 02:04:00,SystemResetWarning,0820.5,5.00,000.00,030.1,029.1,000.0,038.6,031.8,012.2,0000.0,0002.27,0000.55,0000.28
2024-05-24 02:05:00,SystemResetWarning,0820.5,5.01,000.00,030.1,029.1,000.0,038.6,031.8,012.2,0000.0,0002.26,0000.55,0000.28
2024-05-24 02:06:00,SystemResetWarning,0820.6,5.00,000.00,030.1,029.1,000.0,038.6,031.8,012.3,0000.0,0002.32,0000.57,0000.29
2024-05-24 02:07:00,SystemResetWarning,0820.4,5.00,000.00,030.1,029.1,000.0,038.6,031.8,012.3,0000.0,0001.40,0000.59,0000.30
2024-05-24 02:08:00,SystemResetWarning,0820.5,5.00,000.00,030.1,029.1,000.0,038.5,031.8,012.3,0000.0,0001.31,0000.58,0000.32
2024-05-24 02:09:00,SystemResetWarning,0820.5,4.99,000.00,030.1,029.1,000.0,038.5,031.8,012.3,0000.0,0002.56,0000.64,0000.34
2024-05-24 02:10:00,SystemResetWarning,0820.4,5.00,000.00,030.1,029.1,000.0,038.5,031.8,012.3,0000.0,0003.83,0000.67,0000.36
2024-05-24 02:11:00,SystemResetWarning,0820.2,5.00,000.00,030.1,029.1,000.0,038.5,031.8,012.3,0000.0,0004.33,0000.73,0000.38
2024-05-24 02:12:00,SystemResetWarning,0820.4,5.00,000.00,030.1,029.1,000.0,038.5,031.8,012.1,0000.0,0004.87,0000.81,0000.41
2024-05-24 02:13:00,SystemResetWarning,0820.6,4.99,000.00,030.1,029.0,000.0,038.5,031.8,012.1,0000.0,0004.97,0000.89,0000.43
2024-05-24 02:14:00,SystemResetWarning,0820.4,4.99,000.00,030.0,029.0,000.0,038.5,031.7,012.1,0000.0,0005.10,0000.95,0000.45
2024-05-24 02:15:00,SystemResetWarning,0820.8,5.00,000.00,030.0,029.0,000.0,038.5,031.7,012.1,0000.0,0005.16,0000.98,0000.49
2024-05-24 02:16:00,SystemResetWarning,0820.7,5.01,000.00,030.0,028.9,000.0,038.5,031.7,012.0,0000.0,0005.73,0001.16,0000.52
2024-05-24 02:17:00,SystemResetWarning,0820.7,5.01,000.00,030.0,028.9,000.0,038.5,031.7,012.1,0000.0,0006.48,0001.28,0000.55
2024-05-24 02:18:00,SystemResetWarning,0820.6,5.00,000.00,030.0,028.9,000.0,038.5,031.7,012.0,0000.0,0006.68,0001.35,0000.58
2024-05-24 02:19:00,SystemResetWarning,0820.6,5.00,000.00,030.0,028.9,000.0,038.4,031.7,011.9,0000.0,0007.88,0001.47,0000.61
2024-05-24 02:20:00,SystemResetWarning,0820.6,5.00,000.00,030.0,028.9,000.0,038.4,031.7,011.9,0000.0,0007.70,0001.63,0000.66
2024-05-24 02:21:00,SystemResetWarning,0820.5,4.99,000.00,029.9,028.9,000.0,038.4,031.6,011.8,0000.0,0007.10,0001.84,0000.72
2024-05-24 02:22:00,SystemResetWarning,0820.8,4.99,000.00,029.9,028.9,000.0,038.4,031.6,011.8,0000.0,0007.80,0002.07,0000.77
2024-05-24 02:23:00,SystemResetWarning,0821.0,5.00,000.00,029.9,028.9,000.0,038.4,031.6,011.9,0000.0,0008.90,0002.36,0000.82
2024-05-24 02:24:00,SystemResetWarning,0820.8,5.00,000.00,029.9,028.8,000.0,038.4,031.5,011.8,0000.0,0009.50,0002.50,0000.86
2024-05-24 02:25:00,SystemResetWarning,0821.0,5.00,000.00,029.9,028.8,000.0,038.4,031.6,011.8,0000.0,0010.62,0002.66,0000.91
2024-05-24 02:26:00,SystemResetWarning,0820.9,5.01,000.00,029.9,028.8,000.0,038.4,031.5,011.8,0000.0,0011.04,0002.79,0000.95
2024-05-24 02:27:00,SystemResetWarning,0820.9,5.00,000.00,029.8,028.8,000.0,038.4,031.5,011.6,0000.0,0011.78,0002.87,0000.99
2024-05-24 02:28:00,SystemResetWarning,0820.8,5.00,000.00,029.8,028.7,000.0,038.3,031.4,011.6,0000.0,0015.02,0003.04,0001.02
2024-05-24 02:29:00,SystemResetWarning,0820.7,5.00,000.00,029.8,028.7,000.0,038.3,031.4,011.5,0000.0,0015.87,0003.14,0001.05
2024-05-24 02:30:00,SystemResetWarning,0820.8,4.99,000.00,029.8,028.7,000.0,038.3,031.4,011.5,0000.0,0015.41,0003.15,0001.06
2024-05-24 02:31:00,SystemResetWarning,0820.8,4.99,000.00,029.8,028.6,000.0,038.3,031.5,011.5,0000.0,0015.48,0003.16,0001.06
2024-05-24 02:32:00,SystemResetWarning,0820.9,5.00,000.00,029.8,028.6,000.0,038.3,031.5,011.5,0000.0,0015.74,0003.14,0001.07
2024-05-24 02:33:00,SystemResetWarning,0820.7,5.00,000.00,029.7,028.6,000.0,038.3,031.4,011.4,0000.0,0015.54,0003.08,0001.07
2024-05-24 02:34:00,SystemResetWarning,0820.8,5.02,000.00,029.7,028.6,000.0,038.3,031.4,011.4,0000.0,0014.66,0002.84,0001.05
2024-05-24 02:35:00,SystemResetWarning,0820.7,4.99,000.00,029.7,028.6,000.0,038.3,031.4,011.4,0000.0,0014.52,0002.84,0001.05
2024-05-24 02:36:00,SystemResetWarning,0820.8,4.99,000.00,029.7,028.6,000.0,038.2,031.4,011.3,0000.0,0015.42,0002.86,0001.05
2024-05-24 02:37:00,SystemResetWarning,0820.8,4.99,000.00,029.7,028.6,000.0,038.2,031.4,011.4,0000.0,0016.59,0002.83,0001.04
2024-05-24 02:38:00,SystemResetWarning,0820.8,5.00,000.00,029.7,028.6,000.0,038.2,031.3,011.3,0000.0,0016.40,0002.78,0001.04
2024-05-24 02:39:00,SystemResetWarning,0820.8,5.00,000.00,029.6,028.5,000.0,038.2,031.3,011.3,0000.0,0013.60,0002.68,0001.03
2024-05-24 02:40:00,SystemResetWarning,0820.8,5.00,000.00,029.6,028.5,000.0,038.2,031.3,011.2,0000.0,0013.27,0002.67,0001.04
2024-05-24 02:41:00,SystemResetWarning,0820.8,5.00,000.00,029.6,028.5,000.0,038.2,031.3,011.2,0000.0,0013.37,0002.82,0001.06
2024-05-24 02:42:00,SystemResetWarning,0820.6,5.00,000.00,029.6,028.4,000.0,038.2,031.3,011.1,0000.0,0013.53,0002.93,0001.07
2024-05-24 02:43:00,SystemResetWarning,0820.6,5.00,000.00,029.6,028.4,000.0,038.2,031.2,011.1,0000.0,0013.51,0002.99,0001.07
2024-05-24 02:44:00,SystemResetWarning,0820.4,5.00,000.00,029.5,028.4,000.0,038.1,031.2,011.1,0000.0,0014.03,0003.12,0001.09
2024-05-24 02:45:00,SystemResetWarning,0820.4,5.00,000.00,029.5,028.3,000.0,038.1,031.2,011.1,0000.0,0014.06,0003.28,0001.11
2024-05-24 02:46:00,SystemResetWarning,0820.6,5.00,000.00,029.5,028.3,000.0,038.1,031.2,011.1,0000.0,0014.30,0003.38,0001.12
2024-05-24 02:47:00,SystemResetWarning,0820.4,5.00,000.00,029.5,028.3,000.0,038.1,031.1,011.1,0000.0,0013.50,0003.43,0001.14
2024-05-24 02:48:00,SystemResetWarning,0820.3,5.01,000.00,029.4,028.3,000.0,038.1,031.1,011.0,0000.0,0012.73,0003.59,0001.17
2024-05-24 02:49:00,SystemResetWarning,0820.5,5.00,000.00,029.4,028.3,000.0,038.0,031.1,011.0,0000.0,0013.07,0003.65,0001.20
2024-05-24 02:50:00,SystemResetWarning,0820.6,5.00,000.00,029.4,028.2,000.0,038.0,031.0,011.0,0000.0,0014.62,0003.77,0001.24
2024-05-24 02:51:00,SystemResetWarning,0820.8,5.00,000.00,029.4,028.2,000.0,038.0,031.0,011.1,0000.0,0014.63,0003.87,0001.29
2024-05-24 02:52:00,SystemResetWarning,0820.8,5.00,000.00,029.3,028.2,000.0,038.0,031.0,011.0,0000.0,0015.90,0003.94,0001.32
2024-05-24 02:53:00,SystemResetWarning,0820.9,5.00,000.00,029.3,028.1,000.0,038.0,031.0,011.1,0000.0,0016.98,0003.94,0001.33
2024-05-24 02:54:00,SystemResetWarning,0820.7,5.00,000.00,029.3,028.1,000.0,037.9,031.0,011.1,0000.0,0017.32,0003.97,0001.36
2024-05-24 02:55:00,SystemResetWarning,0820.8,5.00,000.00,029.3,028.1,000.0,037.9,031.0,011.0,0000.0,0017.03,0003.98,0001.36
2024-05-24 02:56:00,SystemResetWarning,0820.9,5.00,000.00,029.2,028.1,000.0,037.9,031.0,011.0,0000.0,0017.64,0003.95,0001.39
2024-05-24 02:57:00,SystemResetWarning,0821.0,5.00,000.00,029.2,028.0,000.0,037.9,030.9,011.1,0000.0,0018.84,0003.93,0001.42
2024-05-24 02:58:00,SystemResetWarning,0820.8,5.00,000.00,029.2,028.0,000.0,037.8,030.9,011.1,0000.0,0018.92,0003.92,0001.43
2024-05-24 02:59:00,SystemResetWarning,0820.8,5.00,000.00,029.2,028.0,000.0,037.8,030.9,011.0,0000.0,0018.59,0003.86,0001.44
